This demonstration page uses our WeatherBlox Daily Observations layout. Learn more.

Left ArrowRight Arrow

40.92501, -98.34201

Hourly Observations for July 28, 2021

Temp ( °F °C ) Dew Point ( °F °C ) Humidity (%) Winds ( mph kmh ) Pressure ( in mb ) Visibility ( mi km ) Precip ( " mm )
12:53 am 00:53 Clear 79 26.1 72 22.2 79 79 S 10 17 30.01 1016 10 16 0.00 0.00
1:53 am 01:53 Clear 77 25 71 21.7 82 82 S 7 11 30.01 1016 10 16 0.00 0.00
2:53 am 02:53 Clear 76 24.4 71 21.7 85 85 S 8 13 30.01 1016 10 16 0.00 0.00
3:53 am 03:53 Clear 74 23.3 70 21.1 88 88 S 7 11 30.01 1016 8 13 0.00 0.00
4:53 am 04:53 Clear 73 22.8 69 20.6 87 87 S 8 13 30.02 1017 9 14 0.00 0.00
5:53 am 05:53 Clear 74 23.3 68 20 82 82 SSW 7 11 30.01 1016 10 16 0.00 0.00
6:53 am 06:53 Sunny 74 23.3 67 19.4 79 79 S 7 11 30.02 1017 10 16 0.00 0.00
7:53 am 07:53 Sunny 77 25 68 20 74 74 S 10 17 30.02 1017 9 14 0.00 0.00
8:53 am 08:53 Sunny 83 28.3 70 21.1 65 65 SSW 12 19 30.01 1016 10 16 0.00 0.00
9:53 am 09:53 Sunny 87 30.6 71 21.7 59 59 SSW 14 22 30.00 1016 10 16 0.00 0.00
10:53 am 10:53 Sunny 91 32.8 72 22.2 54 54 SSW 15 24 30.00 1016 10 16 0.00 0.00
11:53 am 11:53 Sunny 94 34.4 72 22.2 49 49 SSW 14 22 30.01 1016 10 16 0.00 0.00
12:53 pm 12:53 Sunny 96 35.6 71 21.7 44 44 SSW 13 20 30.01 1016 10 16 0.00 0.00
1:53 pm 13:53 Sunny 96 35.6 73 22.8 47 47 S 14 22 29.99 1016 10 16 0.00 0.00
2:53 pm 14:53 Sunny 97 36.1 72 22.2 45 45 S 16 26 29.98 1015 10 16 0.00 0.00
3:53 pm 15:53 Sunny 97 36.1 72 22.2 45 45 S 16 26 29.97 1015 10 16 0.00 0.00
4:53 pm 16:53 Sunny 97 36.1 72 22.2 45 45 S 13 20 29.96 1015 10 16 0.00 0.00
5:53 pm 17:53 Sunny 96 35.6 71 21.7 44 44 S 14 22 29.95 1014 10 16 0.00 0.00
6:53 pm 18:53 Sunny 93 33.9 76 24.4 58 58 SE 13 20 29.94 1014 10 16 0.00 0.00
7:53 pm 19:53 Sunny 89 31.7 76 24.4 65 65 SSE 10 17 29.94 1014 10 16 0.00 0.00
8:53 pm 20:53 Sunny 86 30 74 23.3 67 67 SSE 10 17 29.93 1014 10 16 0.00 0.00
9:53 pm 21:53 Clear 85 29.4 73 22.8 68 68 S 13 20 29.94 1014 10 16 0.00 0.00
10:53 pm 22:53 Clear 83 28.3 72 22.2 70 70 S 12 19 29.95 1014 10 16 0.00 0.00
11:53 pm 23:53 Clear 82 27.8 70 21.1 67 67 S 13 20 29.95 1014 10 16 0.00 0.00

Powered by AerisWeather